Regional Weather Roundup
Issued by NWS Wakefield, VA

Home | Current Version | Previous Version | Text Only | Print | Product List | Glossary Off
Versions: 1 2 3 4 5 6 7 8 9 10 11 12 13 14 15 16 17 18 19 20 21 22 23 24 25 26 27 28 29 30 31 32 33 34 35 36 37 38 39 40 41 42 43 44 45 46 47 48 49 50

000
ASUS41 KAKQ 311915
RWRAKQ

REGIONAL WEATHER ROUNDUP
NATIONAL WEATHER SERVICE WAKEFIELD VA
300 PM EDT FRI JUL 31 2015

Note: "fair" indicates few or no clouds below 12,000 feet with no
significant weather and/or obstructions to visibility. * = Denotes
station may not report precipitation (e.g., rain,snow,etc.),
thunder or fog.

VAZ042-051-052>054-056-312000-
NORTHERN VIRGINIA

CITY           SKY/WX    TMP DP  RH WIND       PRES   REMARKS
WASH NATIONAL  MOSUNNY   90  59  35 VRB6      29.91F
DULLES         MOSUNNY   86  57  37 CALM      29.93F
FORT BELVOIR   MOSUNNY   88  61  39 W6        29.91F
QUANTICO       MOSUNNY   89  54  31 W6        29.89F
FREDERICKSBRG* SUNNY     89  60  38 W6        29.91F
STAFFORD*      PTSUNNY   85  58  39 W6        29.97F
WARRENTON      SUNNY     88  63  43 CALM      29.94F
CULPEPER*      SUNNY     85  59  42 NW5       29.95F
MANASSAS*      MOSUNNY   86  55  35 CALM      29.93F
LEESBURG*      PTSUNNY   90  63  40 SW9       29.94F
WINCHESTER     PTSUNNY   90  55  31 W3        29.95F
FRONT ROYAL*   FAIR      82  57  42 CALM      29.95F
LURAY*         FAIR      88  55  33 CALM      29.96F
$$

VAZ048-049-060>072-079>083-312000-
CENTRAL AND SOUTH CENTRAL VIRGINIA

CITY           SKY/WX    TMP DP  RH WIND       PRES   REMARKS
RICHMOND       MOSUNNY   90  61  37 N7        29.92F
CHESTERFIELD*  FAIR      90  57  33 N7        29.94F
PETERSBURG*    SUNNY     89  66  45 W5        29.93F
HANOVER        SUNNY     88  61  40 CALM      29.94F
TAPPAHANNOCK*  SUNNY     86  56  36 CALM      29.93F
QUINTON*       FAIR      87  62  44 NW6       29.92F
CHARLOTTSVILLE MOSUNNY   85  60  42 CALM      29.96F
GORDONSVILLE*  FAIR      84  61  45 CALM      29.95F
ORANGE*        SUNNY     86  57  37 W5        29.96F
LOUISA*        SUNNY     88  57  35 N8        29.94F
BUMPASS*       FAIR      85  60  41 W3        29.94F
FARMVILLE*     MOSUNNY   89  56  32 SW7       29.94F
CREWE*         FAIR     N/A N/A N/A CALM      29.95F
FORT PICKETT*  FAIR      86  59  39 NW8       29.94F
CHASE CITY*    FAIR      89  64  44 CALM      29.96F
CLARKSVILLE*   FAIR      86  63  45 N3        29.95F
SOUTH HILL*    MOSUNNY   86  64  47 NW5       29.99F
LAWRENCEVILLE* FAIR      88  64  45 N7        29.93F
EMPORIA*       MOSUNNY   88  63  42 NW8       29.93F
$$

VAZ088>098-312000-
SOUTHEAST VIRGINIA

CITY           SKY/WX    TMP DP  RH WIND       PRES   REMARKS
NORFOLK        SUNNY     86  62  44 N12       29.90F
VIRGINIA BEACH MOSUNNY   90  62  39 N12       29.89F
NORFOLK NAVAL  MOSUNNY   86  65  49 NE9       29.91F
WEST POINT*    SUNNY     89  59  35 NW7       29.93F
SALUDA*        FAIR      85  64  48 NW8       29.91F
NEWPORT NEWS   PTSUNNY   89  66  46 VRB5      29.91F
LANGLEY AFB    SUNNY     86  66  51 N10       29.90F
FORT EUSTIS    SUNNY     87  63  43 NW7       29.89F
WILLIAMSBURG*  SUNNY     93  70  46 CALM      29.92F HX  99
HR EXEC AP*    FAIR      88  66  48 N6        29.92F
FRANKLIN*      MOSUNNY   89  66  46 N7        29.91F
WAKEFIELD      SUNNY     89  63  41 N7        29.91F
$$

VAZ020-022-025-037-045-312000-
WEST CENTRAL AND SOUTHWEST VIRGINIA

CITY           SKY/WX    TMP DP  RH WIND       PRES   REMARKS
STAUNTON*      MOSUNNY   88  55  32 S3        30.00F
WAYNESBORO*    FAIR      82  57  42 SW3       30.00F
HOT SPRINGS VA PTSUNNY   74  55  50 W5        30.13S
LYNCHBURG      SUNNY     84  54  35 W8        29.99F
DANVILLE       SUNNY     88  61  40 VRB3      29.97F
SOUTH BOSTON*  FAIR      87  57  37 CALM      29.96F
MARTINSVILLE   MOSUNNY   88  55  32 NW5       30.01F
ROANOKE        MOSUNNY   87  55  33 N9        30.02F
BLACKSBURG     SUNNY     81  59  46 W5        30.09F
DUBLIN*          N/A     81  57  43 CALM      30.08F
MARION*        SUNNY     80  58  46 SW5       30.12F
HILLSVILLE*    PTSUNNY   76  58  52 N5        30.09F
RICHLANDS*     FAIR      77  55  47 CALM      30.12F
WISE*          SUNNY     81  48  32 N6        30.15S
ABINGDON*      SUNNY     82  51  34 CALM      30.09F
$$

MDZ021>025-VAZ099-100-312000-
SOUTHERN MARYLAND AND THE DELMARVA PENINSULA

CITY           SKY/WX    TMP DP  RH WIND       PRES   REMARKS
PATUXENT RIVER MOSUNNY   87  58  37 NW8       29.90F
BAY BRIDGE APT   N/A     86  55  35 N3        29.89F
LEONARDTOWN    SUNNY     86  54  32 CALM      29.92F
DOVER          MOSUNNY   86  62  43 NW9       29.87F
GEORGETOWN     SUNNY     88  57  34 N9        29.89F
EASTON         NOT AVBL
CAMBRIDGE      SUNNY     86  54  32 W7        29.90F
SALISBURY      SUNNY     88  60  38 NW8       29.89F
OCEAN CITY     SUNNY     88  55  32 NE10      29.88F
WALLOPS ISLAND SUNNY     89  61  38 NW8       29.89F
ACCOMACK*      SUNNY     86  61  42 NW10      29.90F
$$

NCZ012>017-030>032-312000-
NORTH CENTRAL AND EASTERN NORTH CAROLINA

CITY           SKY/WX    TMP DP  RH WIND       PRES   REMARKS
ROANOKE RAPIDS FAIR      88  63  42 NE3       29.92F
RALEIGH        MOSUNNY   89  63  41 NE7       29.95F
ELIZABETH CITY SUNNY     88  62  41 NE16      29.89F
AHOSKIE*       SUNNY     87  67  51 NW6       29.91F
EDENTON*         N/A     89  67  48 NE9       29.90S
CURRITUCK*     SUNNY     87  58  36 NE13G18   29.90F
KILL DEVIL HLS PTSUNNY   86  68  54 N10G16    29.89S
MANTEO         MOSUNNY   85  72  63 NE12      29.90S
CAPE HATTERAS  CLOUDY    83  74  74 NE9       29.89R
TARBORO*         N/A     92  67  44 N7        29.91F HX  95
GOLDSBORO      SUNNY     92  69  47 VRB3      29.88F HX  96
WASHINGTON     SUNNY     88  74  63 NE6       29.90F HX  95
GREENVILLE     MOSUNNY   91  72  52 CALM      29.92F HX  98
NEW BERN       PTSUNNY   89  73  59 N5        29.90F HX  97
WILMINGTON     PTSUNNY   91  75  59 SW5       29.89F HX 101
$$

VAZ048-312000-
ELSEWHERE

CITY           SKY/WX    TMP DP  RH WIND       PRES   REMARKS
HARRISBURG PA  MOSUNNY   88  54  31 NW7       29.89F
BALTIMORE      MOSUNNY   89  57  33 N10       29.90F
ANNAPOLIS      SUNNY     87  54  32 N7        29.89F
ANDREWS AFB    MOSUNNY   89  58  35 W9        29.90F
PHILADELPHIA   MOSUNNY   89  54  30 NW12G18   29.87F
HENDERSON NC   SUNNY     87  58  37 N8        29.95F
GREENSBORO     MOSUNNY   87  58  37 VRB5      29.98F
ROCKY MOUNT    SUNNY     93  63  36 VRB7      29.91F
$$

VAZ100-312000-
MARINE

STATION/POSITION TIME  TEMP    WIND        PRES    WAVE   SWELL
                       AIR SEA DIR/SP/G            HT/PER HT/PER
                 (UTC) (F)     (DEG/KT/KT) (MB)    (FT/S) (FT/S)
BRANDYWINE LGT   1800   80 77  330/  2/  3 1012.7F
CAPE MAY NJ      1800   83 81  290/  8/ 10 1012.1F
LEWES DE         1800   80 74   30/  3/  3 1012.5F
15NM E FENWICK I 1850   80 80  310/  8/ 10 1012.3F   3/ 7   3/ 7
OCEAN-CITY-INLET 1800   85 75   80/  6/ 10 1011.7F
WACHAPREAGUE VA  1818   88 87   20/  1/  8 1012.8F
GOOSES REEF MD   1900   84 84  160/  4/  4 1013.6F
COVE POINT MD    1800   82     110/  2/  3 1013.9F
SOLOMONS ISLAND  1800      83                N/A
BISHOPS HEAD MD  1800   83 85  300/ 10/ 11 1012.3F
PINEY POINT MD   1800          310/  7/  9   N/A
POTOMAC MD       1900   85 85   80/  2/  4 1011.7F   0
CAMBRIDGE MD     1800   84 83  250/  4/  5 1012.3F
LEWISETTA VA     1800   84 83  340/  4/  5 1012.9F
RAPPAHANNOCK LGT 1800          340/  9/ 11 1013.8F
STINGRAY PT      1900   84 84   30/  6/  8 1012.8F   1/ 2
YORK RVR RNG VA  1800   83      40/  7/ 11 1012.8F
YORKTOWN VA      1800   84 84  290/  6/  7 1013.0F
JAMESTOWN VA     1900   85 87  300/  4/  6   N/A
DOMINION TERM VA 1800   85      40/  9/ 13 1013.1F
KIPTOPEKE VA     1800      82  350/ 12/ 18   N/A
CHES BAY BRIDGE  1800   82 80  350/ 14/ 17 1012.7F
CAPE HENRY VA    1800   81      10/  5/  6   N/A
CHESAPEAKE LGHT  1800   81      30/ 11/ 13 1013.6F
WILLOUBY STN VA  1800   82      40/ 12/ 13 1014.2F
CAPE HENRY BUOY  1828      81                N/A     3/ 4
1ST LANDING BUOY 1900      80              1012.2F   2/ 3
CAPE CHARLES BUO 1826      81                N/A     3/ 4   2/11
OFFSHORE WE BUOY 1811      82                N/A     4/ 4   3/ 6
64NM E OF VA BCH 1850   81 82   20/ 16/ 19 1011.1F   4/ 8   3/ 8
DUCK PIER NC     1800   78 69   10/  9/ 11 1011.8F
44100 DUCK FRF   1824      81                N/A     4/ 4
44056 DUCK FRF   1811      80                N/A     3/ 4
OREGON INLET NC  1800   83 84  350/ 11/ 16 1012.2F
HATTERAS NC      1800   82 82  360/ 13/ 17 1011.6F
DIAMOND SHLS NC  1850   82 86   10/  8/ 10 1012.3R   4/ 9   3/ 9
CAPE LOOKOUT NC  1900   85     230/  6/  8 1011.8R
$$



USA.gov is the U.S. government's official web portal to all federal, state and local government web resources and services.